Date,TemperatureHighF,TemperatureAvgF,TemperatureLowF,DewpointHighF,DewpointAvgF,DewpointLowF,HumidityHigh,HumidityAvg,HumidityLow,PressureMaxIn,PressureMinIn,WindSpeedMaxMPH,WindSpeedAvgMPH,GustSpeedMaxMPH,PrecipitationSumIn
2013-4-1,83.0,70.7,56.8,65.0,60.4,55.0,94,72,45,30.01,29.83,13,5,21,0.00
2013-4-2,72.8,65.8,50.7,65.0,61.7,48.0,93,87,75,29.98,29.81,22,8,37,0.87
2013-4-3,58.9,50.4,47.8,56.0,48.2,45.0,95,92,88,30.15,29.81,27,10,32,0.13
2013-4-4,59.7,51.2,45.3,46.0,43.4,40.0,89,76,59,30.24,30.11,16,8,22,0.00
2013-4-5,67.7,52.1,39.8,52.0,44.7,38.0,95,77,52,30.27,30.02,15,5,22,0.01
2013-4-6,77.8,65.6,53.2,59.0,54.0,47.0,85,67,52,30.02,29.79,21,11,25,0.00
2013-4-7,78.7,69.1,61.8,65.0,61.5,58.0,88,77,60,29.85,29.67,27,11,30,0.00
2013-4-8,72.2,69.0,66.2,67.0,64.1,61.0,90,84,79,29.74,29.60,27,13,31,0.00
2013-4-9,81.8,74.0,69.1,68.0,66.8,64.0,91,78,61,29.64,29.52,26,14,34,0.00
2013-4-10,73.7,53.3,42.5,68.0,47.0,39.0,90,79,56,29.97,29.59,29,11,30,0.05
2013-4-11,67.6,55.5,44.8,45.0,39.0,33.0,76,56,35,29.99,29.78,12,6,18,0.00
2013-4-12,78.7,63.5,48.9,50.0,46.7,44.0,89,58,30,29.98,29.80,15,5,18,0.00
2013-4-13,76.0,66.2,57.2,59.0,52.9,48.0,82,64,43,29.91,29.74,18,8,21,0.03
2013-4-14,92.3,71.5,58.7,64.0,59.0,53.0,90,68,26,29.77,29.51,16,8,24,0.00
2013-4-15,86.2,76.3,68.8,67.0,65.4,61.0,90,70,46,29.72,29.60,18,10,22,0.00
2013-4-16,85.9,75.2,68.6,69.0,66.1,63.0,86,74,56,29.82,29.71,23,12,28,0.00
2013-4-17,80.8,75.6,72.2,71.0,69.1,67.0,92,80,65,29.80,29.60,25,15,32,0.00
2013-4-18,75.3,61.0,49.2,71.0,50.2,35.0,91,69,46,30.10,29.56,26,12,29,0.25
2013-4-19,66.5,53.0,41.1,40.0,33.4,25.0,86,51,22,30.31,30.09,12,5,21,0.00
2013-4-20,71.3,60.5,49.4,47.0,34.9,30.0,61,40,23,30.20,29.95,24,11,31,0.00
2013-4-21,76.8,64.0,52.7,59.0,52.2,47.0,83,67,45,30.12,29.96,24,10,30,0.00
2013-4-22,81.2,70.0,58.5,62.0,58.7,55.0,88,69,48,30.04,29.80,18,10,25,0.00
2013-4-23,72.2,61.9,48.9,64.0,53.8,41.0,86,75,62,30.13,29.76,20,11,25,0.00
2013-4-24,62.7,52.6,42.2,41.0,36.3,32.0,80,56,37,30.29,30.13,22,10,27,0.00
2013-4-25,67.1,60.1,53.3,48.0,44.5,39.0,80,57,44,30.32,30.14,13,6,14,0.04
2013-4-26,78.5,67.8,60.5,67.0,60.8,45.0,92,79,50,30.13,29.96,21,8,25,0.00
2013-4-27,82.9,73.9,67.0,69.0,64.2,57.0,95,74,51,30.03,29.88,13,5,19,0.00
2013-4-28,86.5,74.7,65.0,65.0,61.3,56.0,93,66,38,29.98,29.77,16,6,21,0.00
2013-4-29,84.5,73.2,66.3,67.0,63.1,59.0,93,72,44,29.87,29.71,24,8,39,0.00
2013-4-30,84.0,73.4,64.9,65.0,63.6,62.0,92,73,50,29.78,29.65,17,8,18,0.00